DW5071 Weather Reports


time (UTC)temp
C
wind
direction
speed
KPH
gust
KPH
rain 1hr
cm
rain 24hr
cm
rain mn
cm
humidity
%
barometer
mb
20260507213518 35 91 4.8 11.3 0.00 0.00 0.00 7 1009.3
20260507213018 35 95 3.2 9.7 0.00 0.00 0.00 7 1009.4
20260507212518 34 141 1.6 6.4 0.00 0.00 0.00 7 1009.5
20260507212018 35 114 3.2 6.4 0.00 0.00 0.00 7 1009.6
20260507211517 35 151 3.2 8.0 0.00 0.00 0.00 7 1009.7
20260507211018 35 141 3.2 8.0 0.00 0.00 0.00 7 1009.7
20260507210518 35 120 3.2 11.3 0.00 0.00 0.00 7 1009.8
20260507210018 35 123 3.2 6.4 0.00 0.00 0.00 7 1009.9
20260507205517 35 242 1.6 4.8 0.00 0.00 0.00 7 1010.0
20260507205018 35 278 1.6 4.8 0.00 0.00 0.00 7 1010.0
20260507204518 34 104 1.6 4.8 0.00 0.00 0.00 7 1010.1
20260507204037 33 144 1.6 6.4 0.00 0.00 0.00 7 1010.2
20260507203518 33 101 3.2 8.0 0.00 0.00 0.00 7 1010.3
20260507203018 33 126 3.2 8.0 0.00 0.00 0.00 7 1010.3
20260507202518 34 100 4.8 9.7 0.00 0.00 0.00 7 1010.3
20260507202018 34 95 4.8 9.7 0.00 0.00 0.00 6 1010.4
20260507201538 35 245 1.6 6.4 0.00 0.00 0.00 7 1010.4
20260507201018 35 114 1.6 4.8 0.00 0.00 0.00 7 1010.5
20260507200538 35 189 1.6 3.2 0.00 0.00 0.00 7 1010.7
20260507200017 35 245 3.2 6.4 0.00 0.00 0.00 7 1010.8
20260507195538 35 258 3.2 6.4 0.00 0.00 0.00 7 1010.8
20260507195018 35 146 1.6 4.8 0.00 0.00 0.00 8 1010.9
20260507194517 34 144 1.6 4.8 0.00 0.00 0.00 8 1011.0
20260507194018 34 155 3.2 4.8 0.00 0.00 0.00 9 1011.0
20260507193518 33 253 3.2 6.4 0.00 0.00 0.00 9 1011.1
20260507193018 33 83 1.6 4.8 0.00 0.00 0.00 9 1011.2
20260507192518 33 304 1.6 6.4 0.00 0.00 0.00 9 1011.3
20260507192018 33 163 1.6 3.2 0.00 0.00 0.00 9 1011.4
20260507191518 33 238 3.2 6.4 0.00 0.00 0.00 9 1011.4
20260507191038 33 226 1.6 6.4 0.00 0.00 0.00 9 1011.5
20260507190518 32 172 1.6 6.4 0.00 0.00 0.00 9 1011.5
20260507190018 33 272 3.2 11.3 0.00 0.00 0.00 9 1011.6
20260507185518 32 347 3.2 11.3 0.00 0.00 0.00 9 1011.7
20260507185018 32 292 3.2 11.3 0.00 0.00 0.00 10 1011.7
20260507184558 32 255 3.2 11.3 0.00 0.00 0.00 10 1011.8
20260507184037 32 254 3.2 8.0 0.00 0.00 0.00 11 1011.9
20260507183518 32 246 3.2 8.0 0.00 0.00 0.00 11 1012.0
20260507183015 32 213 1.6 4.8 0.00 0.00 0.00 12 1012.0
20260507182515 31 235 1.6 8.0 0.00 0.00 0.00 12 1012.1
20260507182015 31 188 1.6 3.2 0.00 0.00 0.00 12 1012.2
20260507181515 31 241 3.2 6.4 0.00 0.00 0.00 12 1012.3
20260507181015 31 318 3.2 8.0 0.00 0.00 0.00 12 1012.4
20260507180515 31 311 1.6 8.0 0.00 0.00 0.00 12 1012.5
20260507180015 30 275 3.2 8.0 0.00 0.00 0.00 13 1012.5
20260507175515 31 254 3.2 6.4 0.00 0.00 0.00 13 1012.6
20260507175015 31 267 3.2 6.4 0.00 0.00 0.00 13 1012.6
20260507174515 30 306 3.2 6.4 0.00 0.00 0.00 15 1012.6
20260507174015 30 192 1.6 3.2 0.00 0.00 0.00 15 1012.6
20260507173515 30 241 1.6 4.8 0.00 0.00 0.00 15 1012.7
20260507173105 30 273 1.6 4.8 0.00 0.00 0.00 17 1012.8
20260507172515 30 205 1.6 4.8 0.00 0.00 0.00 17 1012.8
20260507172035 30 91 1.6 4.8 0.00 0.00 0.00 18 1012.8
20260507171515 29 105 1.6 6.4 0.00 0.00 0.00 19 1012.9
20260507171015 29 70 1.6 6.4 0.00 0.00 0.00 19 1012.9
20260507170515 29 97 1.6 4.8 0.00 0.00 0.00 20 1013.0
20260507170015 29 359 1.6 3.2 0.00 0.00 0.00 21 1013.1
20260507165516 28 332 1.6 3.2 0.00 0.00 0.00 21 1013.1
20260507165015 28 251 1.6 4.8 0.00 0.00 0.00 20 1013.2
20260507164515 27 255 1.6 4.8 0.00 0.00 0.00 22 1013.2
20260507164015 27 259 1.6 6.4 0.00 0.00 0.00 22 1013.2
20260507163515 27 237 1.6 4.8 0.00 0.00 0.00 23 1013.2
20260507163015 27 238 1.6 4.8 0.00 0.00 0.00 23 1013.3
20260507162516 27 249 1.6 4.8 0.00 0.00 0.00 24 1013.3
20260507162045 27 211 1.6 4.8 0.00 0.00 0.00 26 1013.3
20260507161515 27 222 1.6 4.8 0.00 0.00 0.00 27 1013.4
20260507161015 26 186 1.6 3.2 0.00 0.00 0.00 28 1013.4
20260507160515 26 163 1.6 4.8 0.00 0.00 0.00 29 1013.4
20260507160015 25 189 1.6 3.2 0.00 0.00 0.00 29 1013.4
20260507155535 25 229 0.0 3.2 0.00 0.00 0.00 28 1013.5
20260507155015 25 255 1.6 4.8 0.00 0.00 0.00 28 1013.5
20260507154515 25 255 0.0 3.2 0.00 0.00 0.00 28 1013.5
20260507154016 25 255 1.6 4.8 0.00 0.00 0.00 29 1013.5
20260507153515 25 255 0.0 4.8 0.00 0.00 0.00 29 1013.4
20260507153015 25 255 3.2 4.8 0.00 0.00 0.00 29 1013.5
20260507152515 25 255 1.6 3.2 0.00 0.00 0.00 30 1013.4
20260507152015 24 255 0.0 3.2 0.00 0.00 0.00 31 1013.4
20260507151515 25 254 1.6 4.8 0.00 0.00 0.00 30 1013.5
20260507151015 24 255 0.0 1.6 0.00 0.00 0.00 31 1013.5
20260507150515 23 255 0.0 3.2 0.00 0.00 0.00 32 1013.5
20260507150015 23 255 0.0 3.2 0.00 0.00 0.00 33 1013.5
20260507145515 22 255 1.6 3.2 0.00 0.00 0.00 34 1013.5
20260507145015 22 255 1.6 3.2 0.00 0.00 0.00 33 1013.5
20260507144515 22 255 1.6 3.2 0.00 0.00 0.00 35 1013.5
20260507144015 22 257 1.6 4.8 0.00 0.00 0.00 35 1013.5
20260507143521 22 250 3.2 4.8 0.00 0.00 0.00 35 1013.5
20260507143035 22 259 3.2 6.4 0.00 0.00 0.00 34 1013.4
20260507142515 22 249 3.2 6.4 0.00 0.00 0.00 34 1013.4
20260507142015 22 269 1.6 6.4 0.00 0.00 0.00 34 1013.3
20260507141515 22 233 3.2 6.4 0.00 0.00 0.00 34 1013.3
20260507141015 22 150 1.6 3.2 0.00 0.00 0.00 34 1013.3
20260507140516 21 150 0.0 3.2 0.00 0.00 0.00 34 1013.3
20260507140015 21 149 0.0 1.6 0.00 0.00 0.00 35 1013.3
20260507135555 21 0.0 1.6 0.00 0.00 0.00 35 1013.3
20260507135015 21 149 0.0 1.6 0.00 0.00 0.00 35 1013.2
20260507134515 21 0.0 1.6 0.00 0.00 0.00 37 1013.1
20260507134015 20 149 0.0 1.6 0.00 0.00 0.00 39 1013.1
20260507133515 19 0.0 1.6 0.00 0.00 0.00 40 1013.1
20260507133015 18 149 0.0 1.6 0.00 0.00 0.00 42 1013.0
20260507132515 17 0.0 1.6 0.00 0.00 0.00 43 1013.0
20260507132035 17 149 0.0 1.6 0.00 0.00 0.00 42 1013.0
20260507131515 17 149 0.0 0.0 0.00 0.00 0.00 40 1013.0
20260507131015 17 149 0.0 0.0 0.00 0.00 0.00 39 1012.9
20260507130515 17 0.0 1.6 0.00 0.00 0.00 39 1012.9
20260507130015 17 149 0.0 1.6 0.00 0.00 0.00 39 1012.9
20260507125535 17 147 1.6 3.2 0.00 0.00 0.00 39 1012.8
20260507125035 17 142 0.0 1.6 0.00 0.00 0.00 39 1012.9
20260507124515 17 140 0.0 1.6 0.00 0.00 0.00 38 1012.8
20260507124015 17 139 0.0 3.2 0.00 0.00 0.00 38 1012.7
20260507123515 17 139 0.0 3.2 0.00 0.00 0.00 38 1012.6
20260507123016 17 139 0.0 1.6 0.00 0.00 0.00 39 1012.7
20260507122515 16 139 0.0 1.6 0.00 0.00 0.00 39 1012.6
20260507122015 16 139 0.0 3.2 0.00 0.00 0.00 40 1012.7
20260507121515 16 136 0.0 1.6 0.00 0.00 0.00 41 1012.6
20260507121015 16 136 0.0 1.6 0.00 0.00 0.00 42 1012.6
20260507120515 16 94 0.0 1.6 0.00 0.00 0.00 43 1012.7
20260507120015 16 0.0 0.0 0.00 0.00 0.00 42 1012.7
20260507115515 16 0.0 0.0 0.00 0.00 0.00 41 1012.8
20260507115015 16 0.0 0.0 0.00 0.00 0.00 41 1012.8
20260507114535 16 0.0 0.0 0.00 0.00 0.00 41 1012.8
20260507114015 16 0.0 0.0 0.00 0.00 0.00 40 1012.8
20260507113535 16 0.0 0.0 0.00 0.00 0.00 40 1012.7
20260507113016 17 0.0 0.0 0.00 0.00 0.00 39 1012.7
20260507112515 17 0.0 0.0 0.00 0.00 0.00 39 1012.7
20260507112015 17 0.0 1.6 0.00 0.00 0.00 39 1012.6
20260507111515 17 91 0.0 1.6 0.00 0.00 0.00 39 1012.6
20260507111015 17 91 0.0 1.6 0.00 0.00 0.00 40 1012.6
20260507110515 17 91 0.0 1.6 0.00 0.00 0.00 41 1012.7
20260507110056 16 88 0.0 1.6 0.00 0.00 0.00 42 1012.7
20260507105515 16 0.0 0.0 0.00 0.00 0.00 42 1012.7
20260507105015 17 0.0 0.0 0.00 0.00 0.00 42 1012.7
20260507104515 17 0.0 0.0 0.00 0.00 0.00 42 1012.7
20260507104016 17 0.0 1.6 0.00 0.00 0.00 42 1012.7
20260507103515 17 86 0.0 1.6 0.00 0.00 0.00 42 1012.7
20260507103015 17 86 0.0 1.6 0.00 0.00 0.00 43 1012.7
20260507102515 17 0.0 0.0 0.00 0.00 0.00 42 1012.8
20260507102035 17 0.0 0.0 0.00 0.00 0.00 43 1012.8
20260507101535 17 0.0 0.0 0.00 0.00 0.00 43 1012.9
20260507101015 16 0.0 0.0 0.00 0.00 0.00 43 1012.9
20260507100515 16 0.0 0.0 0.00 0.00 0.00 43 1013.0
20260507100015 17 0.0 0.0 0.00 0.00 0.00 43 1013.1
20260507095515 17 0.0 0.0 0.00 0.00 0.00 43 1013.2
20260507095015 17 0.0 0.0 0.00 0.00 0.00 43 1013.2
20260507094515 17 0.0 0.0 0.00 0.00 0.00 42 1013.3
20260507094015 17 0.0 0.0 0.00 0.00 0.00 41 1013.3
20260507093515 17 0.0 0.0 0.00 0.00 0.00 40 1013.3
20260507093015 17 0.0 0.0 0.00 0.00 0.00 40 1013.4
20260507092515 18 0.0 0.0 0.00 0.00 0.00 39 1013.3
20260507092035 18 0.0 0.0 0.00 0.00 0.00 39 1013.4
20260507091515 18 0.0 0.0 0.00 0.00 0.00 39 1013.3
20260507091015 18 0.0 0.0 0.00 0.00 0.00 39 1013.4
20260507090518 18 0.0 0.0 0.00 0.00 0.00 38 1013.4
20260507090057 18 0.0 0.0 0.00 0.00 0.00 38 1013.4
20260507085517 18 0.0 0.0 0.00 0.00 0.00 38 1013.4
20260507085018 18 0.0 1.6 0.00 0.00 0.00 37 1013.5
20260507084538 18 86 0.0 1.6 0.00 0.00 0.00 38 1013.5
20260507084017 18 86 0.0 1.6 0.00 0.00 0.00 38 1013.5
20260507083517 18 0.0 0.0 0.00 0.00 0.00 38 1013.5
20260507083038 18 0.0 0.0 0.00 0.00 0.00 39 1013.6
20260507082537 18 0.0 0.0 0.00 0.00 0.00 39 1013.6
20260507082018 18 86 0.0 1.6 0.00 0.00 0.00 39 1013.6
20260507081538 18 0.0 0.0 0.00 0.00 0.00 39 1013.6
20260507081017 18 86 0.0 1.6 0.00 0.00 0.00 40 1013.6
20260507080537 18 0.0 1.6 0.00 0.00 0.00 40 1013.6
20260507080017 18 86 0.0 1.6 0.00 0.00 0.00 40 1013.7
20260507075517 18 0.0 0.0 0.00 0.00 0.00 40 1013.7
20260507075017 18 0.0 0.0 0.00 0.00 0.00 40 1013.8
20260507074518 18 0.0 0.0 0.00 0.00 0.00 39 1013.8
20260507074038 18 0.0 0.0 0.00 0.00 0.00 39 1013.7
20260507073517 18 0.0 0.0 0.00 0.00 0.00 39 1013.7
20260507073037 18 0.0 0.0 0.00 0.00 0.00 38 1013.7
20260507072517 19 0.0 0.0 0.00 0.00 0.00 38 1013.7
20260507072018 19 0.0 0.0 0.00 0.00 0.00 37 1013.8
20260507071518 19 0.0 0.0 0.00 0.00 0.00 37 1013.8
20260507071017 19 0.0 0.0 0.00 0.00 0.00 36 1013.8
20260507070517 20 0.0 0.0 0.00 0.00 0.00 35 1013.7
20260507070017 20 0.0 0.0 0.00 0.00 0.00 34 1013.8
20260507065518 20 0.0 0.0 0.00 0.00 0.00 34 1013.8
20260507065018 20 0.0 0.0 0.00 0.00 0.00 34 1013.6
20260507064518 20 0.0 0.0 0.00 0.00 0.00 34 1013.6
20260507064018 20 0.0 0.0 0.00 0.00 0.00 34 1013.6
20260507063517 20 86 0.0 1.6 0.00 0.00 0.00 34 1013.5
20260507063018 20 0.0 1.6 0.00 0.00 0.00 34 1013.5
20260507062517 20 86 0.0 1.6 0.00 0.00 0.00 34 1013.5
20260507062038 20 86 0.0 1.6 0.00 0.00 0.00 35 1013.6
20260507061518 20 86 0.0 1.6 0.00 0.00 0.00 34 1013.6
20260507061017 20 0.0 0.0 0.00 0.00 0.00 34 1013.6
20260507060518 20 0.0 0.0 0.00 0.00 0.00 35 1013.5
20260507060018 20 0.0 0.0 0.00 0.00 0.00 36 1013.5
20260507055518 20 0.0 0.0 0.00 0.00 0.00 36 1013.5
20260507055018 20 0.0 0.0 0.00 0.00 0.00 34 1013.5
20260507054518 20 0.0 0.0 0.00 0.00 0.00 34 1013.5
20260507054017 21 0.0 0.0 0.00 0.00 0.00 33 1013.5
20260507053517 21 0.0 0.0 0.00 0.00 0.00 32 1013.5
20260507053017 21 0.0 0.0 0.00 0.00 0.00 32 1013.5
20260507052518 21 0.0 0.0 0.00 0.00 0.00 31 1013.5
20260507052017 21 0.0 0.0 0.00 0.00 0.00 31 1013.5
20260507051538 21 0.0 0.0 0.00 0.00 0.00 30 1013.5
20260507051017 21 0.0 0.0 0.00 0.00 0.00 30 1013.4
20260507050557 21 0.0 0.0 0.00 0.00 0.00 30 1013.4
20260507050017 21 0.0 0.0 0.00 0.00 0.00 30 1013.3
20260507045558 21 0.0 0.0 0.00 0.00 0.00 29 1013.3
20260507045017 22 0.0 0.0 0.00 0.00 0.00 28 1013.3
20260507044518 22 0.0 0.0 0.00 0.00 0.00 28 1013.4
20260507044017 22 0.0 0.0 0.00 0.00 0.00 27 1013.3
20260507043518 22 0.0 0.0 0.00 0.00 0.00 27 1013.3
20260507043017 22 0.0 0.0 0.00 0.00 0.00 27 1013.2
20260507042517 23 0.0 0.0 0.00 0.00 0.00 26 1013.1
20260507042017 23 0.0 0.0 0.00 0.00 0.00 25 1013.1
20260507041518 23 0.0 0.0 0.00 0.00 0.00 25 1013.0
20260507041038 23 0.0 0.0 0.00 0.00 0.00 24 1012.9
20260507040518 23 0.0 0.0 0.00 0.00 0.00 24 1012.8
20260507040017 23 0.0 0.0 0.00 0.00 0.00 23 1012.8
20260507035517 23 0.0 0.0 0.00 0.00 0.00 23 1012.7
20260507035018 23 0.0 0.0 0.00 0.00 0.00 24 1012.7
20260507034518 23 0.0 0.0 0.00 0.00 0.00 23 1012.6
20260507034037 24 86 0.0 1.6 0.00 0.00 0.00 23 1012.6
20260507033517 24 86 0.0 1.6 0.00 0.00 0.00 23 1012.5
20260507033038 24 0.0 0.0 0.00 0.00 0.00 22 1012.5
20260507032517 24 0.0 1.6 0.00 0.00 0.00 22 1012.4
20260507032017 24 86 0.0 1.6 0.00 0.00 0.00 22 1012.4
20260507031518 24 86 0.0 1.6 0.00 0.00 0.00 22 1012.4
20260507031017 24 86 0.0 1.6 0.00 0.00 0.00 22 1012.3
20260507030518 25 0.0 0.0 0.00 0.00 0.00 22 1012.2
20260507030037 25 0.0 1.6 0.00 0.00 0.00 21 1012.2
20260507025538 25 86 0.0 3.2 0.00 0.00 0.00 21 1012.1
20260507025017 25 0.0 1.6 0.00 0.00 0.00 21 1012.1
20260507024518 25 86 0.0 3.2 0.00 0.00 0.00 20 1012.0
20260507024018 26 86 0.0 4.8 0.00 0.00 0.00 20 1012.0
20260507023518 26 118 0.0 1.6 0.00 0.00 0.00 20 1011.9
20260507023017 26 118 0.0 1.6 0.00 0.00 0.00 20 1011.8
20260507022518 26 119 0.0 1.6 0.00 0.00 0.00 19 1011.8
20260507022037 26 117 0.0 3.2 0.00 0.00 0.00 19 1011.7
20260507021518 26 84 1.6 4.8 0.00 0.00 0.00 19 1011.6
20260507021018 26 85 1.6 3.2 0.00 0.00 0.00 19 1011.7
20260507020557 26 77 1.6 3.2 0.00 0.00 0.00 19 1011.6
20260507020017 27 78 1.6 4.8 0.00 0.00 0.00 19 1011.6
20260507015537 27 125 1.6 4.8 0.00 0.00 0.00 19 1011.6
20260507015018 27 127 0.0 1.6 0.00 0.00 0.00 19 1011.6
20260507014517 27 0.0 1.6 0.00 0.00 0.00 19 1011.6
20260507014018 27 127 0.0 1.6 0.00 0.00 0.00 19 1011.6
20260507013517 27 0.0 6.4 0.00 0.00 0.00 18 1011.6
20260507013017 27 129 0.0 6.4 0.00 0.00 0.00 18 1011.6
20260507012518 28 313 0.0 1.6 0.00 0.00 0.00 18 1011.6
20260507012037 28 327 1.6 4.8 0.00 0.00 0.00 17 1011.6
20260507011518 28 78 1.6 4.8 0.00 0.00 0.00 17 1011.6
20260507011018 29 90 3.2 8.0 0.00 0.00 0.00 17 1011.6
20260507010518 30 96 3.2 6.4 0.00 0.00 0.00 16 1011.6
20260507010018 30 129 1.6 3.2 0.00 0.00 0.00 16 1011.6
20260507005517 30 139 1.6 3.2 0.00 0.00 0.00 16 1011.6
20260507005038 30 150 0.0 1.6 0.00 0.00 0.00 16 1011.6
20260507004517 30 148 1.6 6.4 0.00 0.00 0.00 16 1011.6
20260507004018 30 123 1.6 8.0 0.00 0.00 0.00 16 1011.6
20260507003518 30 80 1.6 4.8 0.00 0.00 0.00 16 1011.6
20260507003037 30 61 1.6 4.8 0.00 0.00 0.00 16 1011.5
20260507002518 29 69 1.6 6.4 0.00 0.00 0.00 17 1011.5
20260507002057 29 117 3.2 6.4 0.00 0.00 0.00 17 1011.5
20260507001518 29 130 1.6 6.4 0.00 0.00 0.00 17 1011.5
20260507001018 30 91 3.2 8.0 0.00 0.00 0.00 16 1011.5
20260507000518 30 100 1.6 8.0 0.00 0.00 0.00 16 1011.5
20260507000018 30 86 1.6 6.4 0.00 0.00 0.00 17 1011.5
20260506235517 29 88 3.2 12.9 0.00 0.00 0.00 17 1011.6
20260506235017 30 92 4.8 12.9 0.00 0.00 0.00 17 1011.6
20260506234518 30 94 3.2 11.3 0.00 0.00 0.00 17 1011.6
20260506234017 29 111 3.2 16.1 0.00 0.00 0.00 17 1011.6
20260506233518 29 105 4.8 16.1 0.00 0.00 0.00 17 1011.6
20260506233017 29 223 4.8 9.7 0.00 0.00 0.00 17 1011.6
20260506232517 29 84 1.6 6.4 0.00 0.00 0.00 17 1011.7
20260506232057 29 128 3.2 6.4 0.00 0.00 0.00 17 1011.7
20260506231518 29 106 1.6 9.7 0.00 0.00 0.00 17 1011.8
20260506231038 30 101 3.2 11.3 0.00 0.00 0.00 17 1011.9
20260506230518 30 113 3.2 11.3 0.00 0.00 0.00 17 1012.0
20260506230018 30 146 1.6 6.4 0.00 0.00 0.00 17 1012.1
20260506225517 29 245 3.2 8.0 0.00 0.00 0.00 17 1012.1
20260506225018 29 156 3.2 8.0 0.00 0.00 0.00 17 1012.2
20260506224517 29 69 3.2 9.7 0.00 0.00 0.00 17 1012.2
20260506224037 29 102 3.2 9.7 0.00 0.00 0.00 17 1012.3
20260506223518 29 90 3.2 8.0 0.00 0.00 0.00 17 1012.3
20260506223018 29 107 3.2 8.0 0.00 0.00 0.00 18 1012.4
20260506222517 29 100 4.8 8.0 0.00 0.00 0.00 18 1012.4
20260506222017 28 250 1.6 6.4 0.00 0.00 0.00 18 1012.4
20260506221517 28 245 3.2 6.4 0.00 0.00 0.00 18 1012.5
20260506221018 28 134 3.2 6.4 0.00 0.00 0.00 18 1012.6
20260506220517 28 107 3.2 6.4 0.00 0.00 0.00 18 1012.7
20260506220018 28 122 3.2 8.0 0.00 0.00 0.00 18 1012.8
20260506215517 28 104 3.2 8.0 0.00 0.00 0.00 18 1012.8
20260506215018 29 89 3.2 6.4 0.00 0.00 0.00 17 1012.8
20260506214517 29 155 3.2 6.4 0.00 0.00 0.00 18 1013.0